Change the Weather History Date:

Wednesday, November 30, 2011

  Actual Average Record
Temperature  
Mean Temperature 48 °F -  
Max Temperature 51 °F 43 °F 57 °F (2001)
Min Temperature 44 °F 37 °F 23 °F (2008)
Degree Days  
Heating Degree Days 18    
Moisture  
Dew Point 43 °F    
Average Humidity 78    
Maximum Humidity 87    
Minimum Humidity 63    
Precipitation  
Precipitation 0.00 in - - ()
Sea Level Pressure  
Sea Level Pressure 29.86 in    
Wind  
Wind Speed 17 mph ()    
Max Wind Speed 24 mph    
Max Gust Speed -    
Visibility 6.2 miles    
Events Rain    
Averages and records for this station are not official NWS values.
T = Trace of Precipitation, MM = Missing Value Source: Averaged Metar Reports

Daily Weather History Graph

Daily Weather History Graph

Search for Another Location

Airport or City:

Trip Planner

Search our weather history database for the weather conditions in past years. The results will help you decide how hot, cold, wet, or windy it might be!

Date:

Astronomy

Nov. 30, 2011 Rise Set
Actual Time 8:04 AM GMT 3:56 PM GMT
Civil Twilight 7:22 AM GMT 4:38 PM GMT
Nautical Twilight 6:37 AM GMT 5:23 PM GMT
Astronomical Twilight 5:55 AM GMT 6:05 PM GMT
Moon 11:50 AM GMT (11/30) 10:07 PM GMT (11/30)
Length of Visible Light 9h 15m
Length of Day
7h 52m
Waxing Crescent, 31% of the Moon is Illuminated
Nov 30
Waxing Crescent
Dec 2
First Quarter
Dec 10
Full
Dec 18
Last Quarter
Dec 24
New

Hourly Weather History & Observations

Time (GMT) Temp. Windchill Dew Point Humidity Pressure Visibility Wind Dir Wind Speed Gust Speed Precip Events Conditions
2:50 AM 47 °F - 39 °F 65%  in - WSW 23.0 mph - -  
5:50 AM 48 °F - 41 °F 68%  in - SW 21.9 mph - -  
6:20 AM 48.2 °F - 41.0 °F 76% 29.95 in 6.2 mi SW 18.4 mph - N/A   Partly Cloudy
6:50 AM 48.2 °F - 41.0 °F 76% 29.95 in 6.2 mi SW 17.3 mph - N/A   Partly Cloudy
7:20 AM 44.6 °F 37.8 °F 41.0 °F 87% 29.95 in 6.2 mi South 15.0 mph - N/A   Scattered Clouds
8:20 AM 44.6 °F 37.4 °F 41.0 °F 87% 29.98 in 6.2 mi South 16.1 mph - N/A   Scattered Clouds
8:50 AM 45 °F - 40 °F 77%  in - South 12.7 mph - -  
8:50 AM 46.4 °F 40.7 °F 41.0 °F 81% 29.98 in 6.2 mi SSE 12.7 mph - N/A   Scattered Clouds
9:20 AM 46.4 °F 40.1 °F 42.8 °F 87% 29.98 in 6.2 mi South 15.0 mph - N/A   Partly Cloudy
9:50 AM 46.4 °F 40.1 °F 41.0 °F 81% 29.98 in 6.2 mi SSE 15.0 mph - N/A   Partly Cloudy
10:20 AM 48.2 °F - 42.8 °F 82% 29.98 in 6.2 mi SSE 16.1 mph - N/A   Partly Cloudy
10:50 AM 48.2 °F - 42.8 °F 82% 29.98 in 6.2 mi SSE 13.8 mph - N/A   Partly Cloudy
11:20 AM 48.2 °F - 42.8 °F 82% 29.98 in 6.2 mi SSE 16.1 mph - N/A Rain Light Rain Showers
11:50 AM 48.2 °F - 42.8 °F 82% 29.95 in 6.2 mi South 17.3 mph - N/A   Partly Cloudy
12:20 PM 50.0 °F - 44.6 °F 82% 29.95 in 6.2 mi South 19.6 mph - N/A   Partly Cloudy
12:50 PM 50.0 °F - 44.6 °F 82% 29.95 in 6.2 mi South 18.4 mph - N/A   Partly Cloudy
1:20 PM 51.8 °F - 44.6 °F 76% 29.92 in 6.2 mi South 18.4 mph - N/A   Partly Cloudy
1:50 PM 51.8 °F - 44.6 °F 76% 29.92 in 6.2 mi South 21.9 mph - N/A Rain Light Rain Showers
2:20 PM 51.8 °F - 44.6 °F 76% 29.92 in 6.2 mi South 17.3 mph - N/A   Partly Cloudy
2:50 PM 50.0 °F - 44.6 °F 82% 29.89 in 6.2 mi South 19.6 mph - N/A   Partly Cloudy
3:20 PM 50.0 °F - 44.6 °F 82% 29.89 in 6.2 mi South 19.6 mph - N/A   Partly Cloudy
3:50 PM 50.0 °F - 42.8 °F 76% 29.86 in 6.2 mi South 20.7 mph - N/A   Scattered Clouds
4:50 PM 50.0 °F - 44.6 °F 82% 29.83 in 6.2 mi South 17.3 mph - N/A   Scattered Clouds
5:20 PM 50.0 °F - 44.6 °F 82% 29.80 in 6.2 mi SSE 17.3 mph - N/A   Scattered Clouds
5:50 PM 50 °F - 43 °F 68%  in - South 21.9 mph - -  
5:50 PM 50.0 °F - 42.8 °F 76% 29.80 in 6.2 mi South 23.0 mph - N/A   Scattered Clouds
6:20 PM 50.0 °F - 42.8 °F 76% 29.77 in 6.2 mi SSE 23.0 mph - N/A   Mostly Cloudy
6:50 PM 48.2 °F - 42.8 °F 82% 29.74 in 6.2 mi SSE 20.7 mph - N/A   Mostly Cloudy
7:20 PM 50.0 °F - 42.8 °F 76% 29.74 in 6.2 mi SSE 21.9 mph - N/A   Mostly Cloudy
7:50 PM 50.0 °F - 42.8 °F 76% 29.71 in 6.2 mi SSE 23.0 mph - N/A   Mostly Cloudy
8:20 PM 50.0 °F - 42.8 °F 76% 29.68 in 6.2 mi South 24.2 mph - N/A   Mostly Cloudy
8:50 PM 49 °F - 42 °F 68%  in - South 19.6 mph - -  
8:50 PM 50.0 °F - 42.8 °F 76% 29.65 in 6.2 mi South 23.0 mph - N/A   Overcast
9:20 PM 50.0 °F - 42.8 °F 76% 29.62 in 6.2 mi SSE 23.0 mph - N/A   Overcast
9:50 PM 50.0 °F - 42.8 °F 76% 29.59 in 6.2 mi SSE 20.7 mph - N/A   Overcast
11:50 PM 51 °F - 42 °F 63%  in - South 24.2 mph - -